Savage Opportunity — WDG6313 — position and weather

sailwx.info

Track history (hours):
 
Tides and Currents Weather Stations Pressure Air Temp Water Temp Dewpoint Dewpoint Depression Visibility Wind Speed Wind Dir Waves Ship Positions

Savage Opportunity

Owner: Savage Inland Marine, Gibson, LA. More information available from US FCC via Universal Licensing System and Coast Guard Vessel Documentation Center.

Last reported at 2017-Sep-26 04:06 UTC. Time now 2017-Sep-26 11:12 UTC.
Position N 29°51' W 092°22'.

Length 25 m.

Type: Other ship. MMSI: 367555670.

Date/timePositionNaut miles runAvg speedWind from/ knotsBaromVisibWave heightAir tempDewpointWater temp
2017-Sep-26 04:06N 29°51' W 092°22'0 4.5
2017-Sep-26 04:00N 29°51' W 092°21'2 4.4
2017-Sep-26 03:30N 29°50' W 092°19'3 5.1
2017-Sep-26 03:00N 29°49' W 092°16'3 5.8
2017-Sep-26 02:30N 29°48' W 092°13'2 4.4
2017-Sep-26 02:00N 29°47' W 092°11'3 5.3
2017-Sep-26 01:30N 29°47' W 092°08'3 5.6
2017-Sep-26 01:00N 29°48' W 092°05'  
2017-Sep-22 02:00N 30°08' W 093°19'0 0.0
2017-Sep-22 01:30N 30°08' W 093°19'0 0.0
2017-Sep-22 01:00N 30°08' W 093°19'0 0.0
2017-Sep-22 00:30N 30°08' W 093°19'0 0.0
2017-Sep-22 00:00N 30°08' W 093°19'0 0.0
2017-Sep-21 23:30N 30°08' W 093°19'0 0.0
2017-Sep-21 23:00N 30°08' W 093°19'0 0.0
2017-Sep-21 22:30N 30°08' W 093°19'0 0.0
2017-Sep-21 22:00N 30°08' W 093°19'0 0.0
2017-Sep-21 21:30N 30°08' W 093°19'2 3.2
2017-Sep-21 21:00N 30°07' W 093°20'1 2.1
2017-Sep-21 20:30N 30°06' W 093°19'0 1.0
2017-Sep-21 20:00N 30°06' W 093°19'1 1.1
2017-Sep-21 19:27N 30°06' W 093°18'2 4.3
2017-Sep-21 19:00N 30°05' W 093°17'0 0.1
2017-Sep-21 18:30N 30°05' W 093°17'0 0.2
2017-Sep-21 18:00N 30°05' W 093°17'0 0.3
2017-Sep-21 17:30N 30°05' W 093°16'0 0.0
2017-Sep-21 17:00N 30°05' W 093°16'0 0.0
2017-Sep-21 16:24N 30°05' W 093°16'0 0.0
2017-Sep-21 16:00N 30°05' W 093°16'2 3.3
2017-Sep-21 15:30N 30°03' W 093°16'3 5.1
2017-Sep-21 15:00N 30°01' W 093°14'2 4.9
2017-Sep-21 14:30N 29°59' W 093°12'3 5.8
2017-Sep-21 14:00N 29°57' W 093°10'3 5.3
2017-Sep-21 13:30N 29°56' W 093°07'40 5.1
2017-Sep-21 05:39N 29°51' W 092°21'1 4.9
2017-Sep-21 05:27N 29°51' W 092°20'2 4.8
2017-Sep-21 05:00N 29°50' W 092°18'2 3.9
2017-Sep-21 04:30N 29°49' W 092°16'3 5.3
2017-Sep-21 04:00N 29°48' W 092°14'2 4.7
2017-Sep-21 03:30N 29°47' W 092°11'3 5.1
2017-Sep-21 03:00N 29°47' W 092°08'3 5.5
2017-Sep-21 02:30N 29°48' W 092°05'61 2.0
2017-Sep-19 20:19N 29°34' W 090°57'2 6.4
2017-Sep-19 19:58N 29°33' W 090°54'2 0.1
2017-Sep-18 08:50N 29°32' W 090°52'0 1.0
2017-Sep-18 08:30N 29°32' W 090°53'3 5.8
2017-Sep-18 07:58N 29°34' W 090°56'58 5.0
2017-Sep-17 20:25N 29°50' W 091°60'3 6.7
2017-Sep-17 20:00N 29°49' W 092°03'4 7.0
2017-Sep-17 19:30N 29°48' W 092°07'3 6.6
2017-Sep-17 19:00N 29°46' W 092°10'3 6.3
2017-Sep-17 18:30N 29°48' W 092°14'4 7.2
2017-Sep-17 18:00N 29°49' W 092°17'42 5.2
2017-Sep-17 09:58N 29°56' W 093°05'3 5.9
2017-Sep-17 09:30N 29°56' W 093°08'3 5.5
2017-Sep-17 09:00N 29°57' W 093°11'3 5.6
2017-Sep-17 08:30N 29°60' W 093°13'2 4.1
2017-Sep-17 08:00N 30°01' W 093°14'2 4.8
2017-Sep-17 07:30N 30°03' W 093°16'3 5.0
2017-Sep-17 07:00N 30°05' W 093°17'2 3.2
2017-Sep-17 06:30N 30°06' W 093°19'2 4.2
2017-Sep-17 06:00N 30°08' W 093°20'1 1.0
2017-Sep-17 05:30N 30°08' W 093°19'0 0.1
2017-Sep-17 04:57N 30°08' W 093°19'0 0.0
2017-Sep-17 04:30N 30°08' W 093°19'0 0.0
2017-Sep-17 04:00N 30°08' W 093°19'0 0.0
2017-Sep-17 03:30N 30°08' W 093°19'0 0.0
2017-Sep-17 03:00N 30°08' W 093°19'0 0.0
2017-Sep-17 02:30N 30°08' W 093°19'0 0.0
2017-Sep-17 02:00N 30°08' W 093°19'0 0.0
2017-Sep-17 01:30N 30°08' W 093°19'0 0.0
2017-Sep-17 01:00N 30°08' W 093°19'0 0.0
2017-Sep-17 00:30N 30°08' W 093°19'0 0.0
2017-Sep-17 00:00N 30°08' W 093°19'0 0.0
2017-Sep-16 23:30N 30°08' W 093°19'0 0.0
2017-Sep-16 23:00N 30°08' W 093°19'0 0.0
2017-Sep-16 22:30N 30°08' W 093°19'0 0.0
2017-Sep-16 22:00N 30°08' W 093°19'0 0.0
2017-Sep-16 21:30N 30°08' W 093°19'0 0.0
2017-Sep-16 21:00N 30°08' W 093°19'0 0.0
2017-Sep-16 20:30N 30°08' W 093°19'0 0.0
2017-Sep-16 20:00N 30°08' W 093°19'0 0.0
2017-Sep-16 19:30N 30°08' W 093°19'0 0.0
2017-Sep-16 19:00N 30°08' W 093°19'0 0.0
2017-Sep-16 18:30N 30°08' W 093°19'0 0.0
2017-Sep-16 18:00N 30°08' W 093°19'0 0.0
2017-Sep-16 17:30N 30°08' W 093°19'0 0.0
2017-Sep-16 17:00N 30°08' W 093°19'0 0.0
2017-Sep-16 16:30N 30°08' W 093°19'0 0.0
2017-Sep-16 16:00N 30°08' W 093°19'0 0.0
2017-Sep-16 15:30N 30°08' W 093°19'0 0.0
2017-Sep-16 15:00N 30°08' W 093°19'0 0.0
2017-Sep-16 14:30N 30°08' W 093°19'0 0.0
2017-Sep-16 14:00N 30°08' W 093°19'0 0.0
2017-Sep-16 13:30N 30°08' W 093°19'0 0.0
2017-Sep-16 13:00N 30°08' W 093°19'0 0.0
2017-Sep-16 12:30N 30°08' W 093°19'0 0.0
2017-Sep-16 12:00N 30°08' W 093°19'0 0.0
2017-Sep-16 11:30N 30°08' W 093°19'0 0.0
2017-Sep-16 11:00N 30°08' W 093°19'0 0.0
2017-Sep-16 10:30N 30°08' W 093°19'0 0.0
2017-Sep-16 10:00N 30°08' W 093°19'0 0.0
2017-Sep-16 09:30N 30°08' W 093°19'0 0.0
2017-Sep-16 09:00N 30°08' W 093°19'0 0.0
2017-Sep-16 08:30N 30°08' W 093°19'0 0.0
2017-Sep-16 08:00N 30°08' W 093°19'0 0.0
2017-Sep-16 07:30N 30°08' W 093°19'0 0.0
2017-Sep-16 07:00N 30°08' W 093°19'0 0.5
2017-Sep-16 06:30N 30°08' W 093°20'0 0.0
2017-Sep-16 06:00N 30°08' W 093°20'0 0.0
2017-Sep-16 05:30N 30°08' W 093°20'0 0.0
2017-Sep-16 05:00N 30°08' W 093°20'0 0.0
2017-Sep-16 04:30N 30°08' W 093°20'  
Track history (hours):
 
Tides and Currents Weather Stations Pressure Air Temp Water Temp Dewpoint Dewpoint Depression Visibility Wind Speed Wind Dir Waves Ship Positions

Savage Opportunity

Owner: Savage Inland Marine, Gibson, LA. More information available from US FCC via Universal Licensing System and Coast Guard Vessel Documentation Center.

Last reported at 2017-Sep-26 04:06 UTC. Time now 2017-Sep-26 11:12 UTC.
Position N 29°51' W 092°22'.

Length 25 m.

Type: Other ship. MMSI: 367555670.

Date/timePositionNaut miles runAvg speedWind from/ knotsBaromVisibWave heightAir tempDewpointWater temp
2017-Sep-26 04:06N 29°51' W 092°22'0 4.5
2017-Sep-26 04:00N 29°51' W 092°21'2 4.4
2017-Sep-26 03:30N 29°50' W 092°19'3 5.1
2017-Sep-26 03:00N 29°49' W 092°16'3 5.8
2017-Sep-26 02:30N 29°48' W 092°13'2 4.4
2017-Sep-26 02:00N 29°47' W 092°11'3 5.3
2017-Sep-26 01:30N 29°47' W 092°08'3 5.6
2017-Sep-26 01:00N 29°48' W 092°05'  
2017-Sep-22 02:00N 30°08' W 093°19'0 0.0
2017-Sep-22 01:30N 30°08' W 093°19'0 0.0
2017-Sep-22 01:00N 30°08' W 093°19'0 0.0
2017-Sep-22 00:30N 30°08' W 093°19'0 0.0
2017-Sep-22 00:00N 30°08' W 093°19'0 0.0
2017-Sep-21 23:30N 30°08' W 093°19'0 0.0
2017-Sep-21 23:00N 30°08' W 093°19'0 0.0
2017-Sep-21 22:30N 30°08' W 093°19'0 0.0
2017-Sep-21 22:00N 30°08' W 093°19'0 0.0
2017-Sep-21 21:30N 30°08' W 093°19'2 3.2
2017-Sep-21 21:00N 30°07' W 093°20'1 2.1
2017-Sep-21 20:30N 30°06' W 093°19'0 1.0
2017-Sep-21 20:00N 30°06' W 093°19'1 1.1
2017-Sep-21 19:27N 30°06' W 093°18'2 4.3
2017-Sep-21 19:00N 30°05' W 093°17'0 0.1
2017-Sep-21 18:30N 30°05' W 093°17'0 0.2
2017-Sep-21 18:00N 30°05' W 093°17'0 0.3
2017-Sep-21 17:30N 30°05' W 093°16'0 0.0
2017-Sep-21 17:00N 30°05' W 093°16'0 0.0
2017-Sep-21 16:24N 30°05' W 093°16'0 0.0
2017-Sep-21 16:00N 30°05' W 093°16'2 3.3
2017-Sep-21 15:30N 30°03' W 093°16'3 5.1
2017-Sep-21 15:00N 30°01' W 093°14'2 4.9
2017-Sep-21 14:30N 29°59' W 093°12'3 5.8
2017-Sep-21 14:00N 29°57' W 093°10'3 5.3
2017-Sep-21 13:30N 29°56' W 093°07'40 5.1
2017-Sep-21 05:39N 29°51' W 092°21'1 4.9
2017-Sep-21 05:27N 29°51' W 092°20'2 4.8
2017-Sep-21 05:00N 29°50' W 092°18'2 3.9
2017-Sep-21 04:30N 29°49' W 092°16'3 5.3
2017-Sep-21 04:00N 29°48' W 092°14'2 4.7
2017-Sep-21 03:30N 29°47' W 092°11'3 5.1
2017-Sep-21 03:00N 29°47' W 092°08'3 5.5
2017-Sep-21 02:30N 29°48' W 092°05'61 2.0
2017-Sep-19 20:19N 29°34' W 090°57'2 6.4
2017-Sep-19 19:58N 29°33' W 090°54'2 0.1
2017-Sep-18 08:50N 29°32' W 090°52'0 1.0
2017-Sep-18 08:30N 29°32' W 090°53'3 5.8
2017-Sep-18 07:58N 29°34' W 090°56'58 5.0
2017-Sep-17 20:25N 29°50' W 091°60'3 6.7
2017-Sep-17 20:00N 29°49' W 092°03'4 7.0
2017-Sep-17 19:30N 29°48' W 092°07'3 6.6
2017-Sep-17 19:00N 29°46' W 092°10'3 6.3
2017-Sep-17 18:30N 29°48' W 092°14'4 7.2
2017-Sep-17 18:00N 29°49' W 092°17'42 5.2
2017-Sep-17 09:58N 29°56' W 093°05'3 5.9
2017-Sep-17 09:30N 29°56' W 093°08'3 5.5
2017-Sep-17 09:00N 29°57' W 093°11'3 5.6
2017-Sep-17 08:30N 29°60' W 093°13'2 4.1
2017-Sep-17 08:00N 30°01' W 093°14'2 4.8
2017-Sep-17 07:30N 30°03' W 093°16'3 5.0
2017-Sep-17 07:00N 30°05' W 093°17'2 3.2
2017-Sep-17 06:30N 30°06' W 093°19'2 4.2
2017-Sep-17 06:00N 30°08' W 093°20'1 1.0
2017-Sep-17 05:30N 30°08' W 093°19'0 0.1
2017-Sep-17 04:57N 30°08' W 093°19'0 0.0
2017-Sep-17 04:30N 30°08' W 093°19'0 0.0
2017-Sep-17 04:00N 30°08' W 093°19'0 0.0
2017-Sep-17 03:30N 30°08' W 093°19'0 0.0
2017-Sep-17 03:00N 30°08' W 093°19'0 0.0
2017-Sep-17 02:30N 30°08' W 093°19'0 0.0
2017-Sep-17 02:00N 30°08' W 093°19'0 0.0
2017-Sep-17 01:30N 30°08' W 093°19'0 0.0
2017-Sep-17 01:00N 30°08' W 093°19'0 0.0
2017-Sep-17 00:30N 30°08' W 093°19'0 0.0
2017-Sep-17 00:00N 30°08' W 093°19'0 0.0
2017-Sep-16 23:30N 30°08' W 093°19'0 0.0
2017-Sep-16 23:00N 30°08' W 093°19'0 0.0
2017-Sep-16 22:30N 30°08' W 093°19'0 0.0
2017-Sep-16 22:00N 30°08' W 093°19'0 0.0
2017-Sep-16 21:30N 30°08' W 093°19'0 0.0
2017-Sep-16 21:00N 30°08' W 093°19'0 0.0
2017-Sep-16 20:30N 30°08' W 093°19'0 0.0
2017-Sep-16 20:00N 30°08' W 093°19'0 0.0
2017-Sep-16 19:30N 30°08' W 093°19'0 0.0
2017-Sep-16 19:00N 30°08' W 093°19'0 0.0
2017-Sep-16 18:30N 30°08' W 093°19'0 0.0
2017-Sep-16 18:00N 30°08' W 093°19'0 0.0
2017-Sep-16 17:30N 30°08' W 093°19'0 0.0
2017-Sep-16 17:00N 30°08' W 093°19'0 0.0
2017-Sep-16 16:30N 30°08' W 093°19'0 0.0
2017-Sep-16 16:00N 30°08' W 093°19'0 0.0
2017-Sep-16 15:30N 30°08' W 093°19'0 0.0
2017-Sep-16 15:00N 30°08' W 093°19'0 0.0
2017-Sep-16 14:30N 30°08' W 093°19'0 0.0
2017-Sep-16 14:00N 30°08' W 093°19'0 0.0
2017-Sep-16 13:30N 30°08' W 093°19'0 0.0
2017-Sep-16 13:00N 30°08' W 093°19'0 0.0
2017-Sep-16 12:30N 30°08' W 093°19'0 0.0
2017-Sep-16 12:00N 30°08' W 093°19'0 0.0
2017-Sep-16 11:30N 30°08' W 093°19'0 0.0
2017-Sep-16 11:00N 30°08' W 093°19'0 0.0
2017-Sep-16 10:30N 30°08' W 093°19'0 0.0
2017-Sep-16 10:00N 30°08' W 093°19'0 0.0
2017-Sep-16 09:30N 30°08' W 093°19'0 0.0
2017-Sep-16 09:00N 30°08' W 093°19'0 0.0
2017-Sep-16 08:30N 30°08' W 093°19'0 0.0
2017-Sep-16 08:00N 30°08' W 093°19'0 0.0
2017-Sep-16 07:30N 30°08' W 093°19'0 0.0
2017-Sep-16 07:00N 30°08' W 093°19'0 0.5
2017-Sep-16 06:30N 30°08' W 093°20'0 0.0
2017-Sep-16 06:00N 30°08' W 093°20'0 0.0
2017-Sep-16 05:30N 30°08' W 093°20'0 0.0
2017-Sep-16 05:00N 30°08' W 093°20'0 0.0
2017-Sep-16 04:30N 30°08' W 093°20'  

Dump ship's entire track history